GEFSNGP_500_meanwind_276.txt.gz
Wind_Speed
29 29 29 28 27 28 29 29 30 28 26 25 27 28 28 28 29 29 30 31 31 32 33 34 35 38 39 39 40 41 42 45 46 45 45 47 50 51 53 55 55 53 53 54
29 30 30 29 28 27 28 29 29 29 27 25 26 27 27 28 28 28 29 30 31 32 33 34 36 38 38 39 40 41 41 42 44 46 46 46 46 48 51 53 54 54 54 55
29 30 31 30 28 28 27 27 28 29 27 26 25 26 26 26 27 27 28 29 29 31 32 34 36 37 38 38 39 40 40 41 42 45 46 46 45 47 49 51 52 53 54 54
29 29 30 29 29 29 28 27 27 28 28 27 26 26 26 25 26 27 28 28 29 29 31 33 35 36 37 38 38 39 40 40 41 43 44 44 45 45 46 48 50 53 55 55
29 29 29 29 29 29 29 28 27 27 28 27 27 26 25 25 24 26 27 29 29 29 30 32 34 36 36 37 39 39 39 39 40 42 42 42 42 43 45 46 48 51 53 54
30 30 29 29 29 29 30 29 28 27 27 27 27 27 26 25 25 25 26 26 27 28 29 30 32 34 36 37 37 38 38 37 38 40 42 41 41 42 43 44 46 48 52 53
30 30 29 29 28 29 29 29 29 27 27 27 27 27 27 26 26 25 25 25 25 26 27 28 30 32 34 34 35 36 36 37 38 39 40 41 41 41 42 42 44 47 49 50
30 29 29 28 28 28 28 29 29 29 28 27 27 27 27 27 26 26 25 25 26 26 26 26 28 30 31 33 33 35 36 36 37 38 39 41 40 40 40 41 42 44 46 47
29 28 29 28 28 28 28 29 29 29 29 28 27 27 28 28 28 27 27 26 26 26 27 27 29 30 31 31 32 34 35 35 36 37 38 39 40 40 40 40 41 42 43 44
29 28 29 28 28 27 27 28 28 29 29 29 28 27 28 29 29 28 28 27 27 27 27 27 28 29 30 31 32 32 33 34 35 36 36 37 38 38 39 40 40 41 42 43
29 29 29 29 29 28 27 27 28 28 29 28 28 28 28 28 28 28 28 28 28 28 28 28 28 28 29 30 31 31 32 33 34 35 35 36 37 38 38 38 38 39 40 41
29 28 29 28 28 28 27 27 27 28 28 28 28 27 27 27 27 27 27 27 27 27 28 27 27 28 28 30 30 31 32 33 34 35 36 36 36 36 36 37 37 37 37 38
28 27 27 27 26 26 26 27 27 27 27 27 27 27 27 26 26 26 27 27 28 27 28 28 28 28 28 28 29 30 31 32 33 34 35 35 36 36 36 37 37 38 38 38
26 26 26 26 26 25 25 25 25 26 26 27 26 27 27 26 27 27 28 28 28 28 28 28 28 29 29 29 28 30 31 32 32 32 33 35 36 36 36 37 38 38 38 38
25 25 25 24 24 24 24 24 24 25 26 26 26 26 26 26 26 27 27 28 28 29 29 29 29 29 30 30 29 29 30 31 32 33 34 35 35 35 35 35 36 36 36 37
24 24 24 23 23 23 23 23 23 24 24 25 25 25 26 26 26 26 27 27 28 29 29 30 31 31 31 32 32 31 30 31 31 32 32 33 34 35 35 34 34 35 36 36
23 23 23 23 23 23 22 23 23 23 23 23 24 24 24 24 25 25 26 27 27 28 28 29 31 31 31 32 33 33 33 32 32 33 32 32 33 33 33 34 33 33 34 35
22 22 22 22 21 21 21 22 22 23 22 22 22 23 23 23 23 24 24 25 25 26 26 27 28 29 30 30 31 32 32 32 32 32 32 32 32 32 32 32 32 33 33 33
21 21 21 21 21 21 21 21 21 21 21 21 21 21 21 21 22 22 23 23 23 24 25 25 26 27 28 28 28 29 29 30 31 31 32 32 32 32 32 31 32 33 33 33
20 20 20 20 21 20 20 21 21 20 20 20 20 20 20 20 20 21 21 22 22 23 24 25 25 25 26 27 27 28 28 29 30 30 31 32 32 32 32 32 32 33 33 33
21 21 21 21 20 20 20 20 20 19 19 19 19 19 19 19 19 19 20 20 21 22 23 23 24 25 26 27 27 28 28 29 29 29 30 31 32 32 32 32 33 33 33 32
21 22 21 21 20 20 20 20 19 19 19 20 20 20 19 19 20 20 20 20 21 21 22 22 23 24 25 26 26 27 28 29 29 30 30 30 30 31 32 33 33 33 33 33
21 21 20 20 19 20 20 20 20 20 20 20 20 20 20 20 19 19 19 20 21 21 21 22 23 24 25 25 26 27 27 28 28 29 30 30 30 31 31 31 32 33 33 34
20 20 19 19 20 20 20 20 20 20 20 20 20 21 21 20 20 20 20 21 22 22 22 23 24 24 25 25 26 27 27 27 28 29 30 31 31 32 32 32 32 32 33 33
21 20 20 20 20 20 20 20 20 20 20 20 20 20 20 20 20 20 21 21 22 22 22 22 23 24 24 25 25 26 26 27 27 28 29 30 30 31 32 32 33 33 33 34
21 21 21 20 20 20 20 20 20 20 20 21 20 20 20 20 20 20 20 21 21 21 21 21 22 22 23 23 24 24 25 26 26 27 28 28 28 29 30 31 32 33 33 34
21 21 21 21 21 20 20 20 21 21 21 20 20 20 20 20 20 20 20 20 20 20 21 21 22 22 22 23 23 24 25 26 26 27 27 27 28 28 29 29 30 31 31 32

GEFSNGP_500_meanwind_282.txt.gz
Wind_Speed
28 28 27 27 28 28 27 27 28 27 27 26 27 27 27 27 27 29 30 30 30 30 31 31 32 33 35 35 36 37 38 40 43 44 45 46 48 49 49 50 52 54 56 56
28 28 28 27 28 28 28 29 29 29 28 27 28 29 28 28 28 27 28 29 29 29 30 31 32 33 35 35 35 36 36 37 40 42 44 45 46 47 49 50 51 52 54 56
29 28 28 28 28 29 29 29 29 29 28 28 28 30 29 28 28 28 27 27 28 28 29 30 32 33 34 35 36 37 37 37 38 39 41 42 44 45 47 48 49 52 52 54
30 30 29 28 28 28 28 28 29 30 29 28 28 29 29 29 28 27 27 27 27 28 28 29 31 33 35 35 36 36 36 38 39 39 39 40 42 44 45 48 48 49 51 52
31 31 30 28 28 28 28 28 29 30 30 29 28 28 28 28 27 26 26 26 26 27 27 28 30 31 33 34 35 35 36 37 37 38 38 39 41 42 44 46 47 47 48 49
30 31 30 28 28 28 29 28 28 28 29 30 29 28 26 26 27 26 25 25 26 26 27 28 29 30 32 33 34 34 35 37 38 38 38 38 40 42 43 45 46 46 46 47
29 29 29 27 27 27 27 27 27 27 28 28 29 28 27 26 26 25 25 25 24 25 26 27 28 29 31 32 33 34 36 37 37 37 38 39 39 40 42 43 44 45 45 46
29 28 27 27 26 26 27 26 26 27 27 27 28 28 27 27 26 25 25 25 25 24 25 25 26 27 29 31 32 34 35 36 37 37 37 37 38 38 39 40 42 42 42 42
29 28 28 28 27 27 26 26 26 26 27 27 27 27 27 26 26 25 25 25 25 25 25 24 25 26 28 30 31 32 34 34 35 36 37 37 37 38 38 39 40 41 42 42
29 28 28 28 28 27 27 27 27 27 27 26 26 26 25 25 25 24 25 25 24 24 25 25 25 26 27 29 30 31 32 33 33 34 35 36 36 36 37 37 38 39 39 41
28 28 29 28 28 27 27 27 26 27 26 26 26 25 24 24 24 24 24 24 24 24 25 24 24 25 27 28 29 31 32 32 33 33 33 34 35 35 35 36 37 38 38 38
28 28 28 28 28 28 28 27 26 26 26 26 26 25 24 23 23 23 23 24 25 25 25 24 25 25 26 28 29 30 31 31 32 34 33 33 33 34 34 35 36 36 36 37
27 27 27 27 27 27 27 27 26 26 25 26 25 25 24 24 23 23 24 24 25 26 26 25 25 25 26 27 28 28 29 30 31 33 33 33 33 33 33 34 34 35 36 36
25 25 25 25 25 25 26 26 25 25 25 25 25 24 24 24 24 24 24 25 25 26 26 26 25 26 26 27 27 28 29 29 30 31 32 33 33 34 33 33 33 34 35 36
24 24 24 23 24 24 24 25 25 25 25 25 24 24 24 24 25 25 25 25 25 26 27 27 27 27 27 28 28 29 29 30 30 30 32 33 34 34 34 34 33 33 34 35
23 23 23 22 22 22 22 23 23 24 24 24 23 24 24 25 24 24 25 25 25 26 27 28 29 29 28 28 29 29 30 30 30 30 31 32 33 33 33 33 33 32 32 33
22 22 22 21 21 21 20 21 21 22 22 23 23 23 24 24 23 23 24 24 24 25 26 26 27 28 28 28 29 29 30 30 30 30 31 31 32 32 33 34 33 33 33 33
21 20 20 20 20 20 20 20 20 20 21 21 21 21 22 22 22 22 23 23 23 24 25 25 26 27 28 28 29 29 29 30 30 30 31 31 31 32 33 34 34 35 34 33
20 19 19 19 19 19 19 19 19 19 19 19 19 19 20 20 20 21 21 22 22 23 24 25 25 26 26 27 28 29 30 31 31 31 31 31 31 32 33 34 34 35 35 34
19 19 19 19 20 20 20 19 19 19 19 18 18 18 18 18 19 19 19 20 21 21 22 23 24 25 26 26 27 28 29 30 30 30 31 31 32 32 32 33 34 34 35 35
20 20 19 20 20 20 20 19 19 18 18 18 18 18 18 18 18 18 18 18 19 20 21 22 23 24 24 26 27 27 28 29 29 29 30 31 31 32 32 33 33 33 33 34
21 21 20 20 20 20 19 19 19 19 18 18 19 19 18 18 17 17 17 17 18 19 20 20 21 23 24 25 25 26 27 28 29 30 30 30 31 31 31 31 32 32 32 32
21 21 20 19 19 19 18 18 18 18 18 18 18 18 18 17 17 16 16 16 17 18 18 19 20 21 22 23 24 25 26 27 28 29 30 30 31 31 32 32 32 32 32 32
21 20 20 19 19 18 18 18 18 18 18 18 17 17 17 16 16 16 16 16 17 17 18 18 19 19 20 21 23 24 25 26 27 28 29 30 30 31 32 32 33 33 33 33
21 20 20 19 19 18 18 17 17 17 18 17 17 16 16 16 16 16 16 16 17 17 17 18 18 19 19 20 22 23 24 25 26 27 28 29 29 30 31 32 33 33 33 33
21 20 20 19 19 18 18 18 18 18 17 17 17 16 16 16 16 17 17 17 17 17 18 18 19 19 19 20 21 22 23 24 25 26 27 28 28 29 30 31 32 33 33 33
20 20 19 19 19 19 19 18 18 18 18 17 17 17 17 17 17 17 18 18 18 19 19 19 19 20 20 21 22 23 24 24 25 25 26 27 27 28 28 29 30 30 31 31

GEFSNGP_500_meanwind_288.txt.gz
Wind_Speed
32 32 32 31 30 31 32 33 34 33 33 32 33 33 31 31 32 32 32 32 33 33 34 35 35 36 37 38 38 38 39 39 41 41 43 44 44 45 46 48 49 51 52 52
32 32 32 31 31 32 32 33 34 34 33 32 32 33 34 32 31 32 32 32 33 33 34 35 35 36 37 37 37 38 37 38 40 41 42 43 43 43 44 46 48 49 50 52
33 33 33 32 31 32 32 33 33 34 33 33 33 33 34 34 33 32 31 31 31 32 33 34 35 36 36 36 36 37 38 38 39 39 40 42 42 43 44 45 47 48 48 50
34 34 34 33 32 32 32 33 34 34 33 33 33 33 33 33 34 33 32 31 31 31 32 32 33 34 35 35 35 36 37 37 38 39 40 40 40 41 43 44 44 45 46 47
35 35 35 33 33 33 33 33 33 33 33 33 33 33 33 33 33 32 31 31 30 30 31 31 32 32 32 33 34 35 36 36 37 38 39 40 40 41 42 42 42 43 43 44
35 35 35 33 33 33 33 33 32 32 32 31 32 32 32 33 32 31 30 29 28 27 28 28 29 31 31 31 32 32 33 34 35 36 38 38 39 41 42 42 43 42 41 42
34 35 34 33 33 32 32 31 31 31 31 31 30 31 31 32 31 30 29 29 28 27 27 27 27 28 29 30 31 32 32 33 34 35 36 37 38 39 39 40 41 42 41 40
34 33 32 31 31 31 30 30 30 30 30 30 30 29 30 30 29 29 29 29 28 27 26 26 26 27 28 29 30 31 32 33 34 34 35 36 37 37 38 38 39 41 42 41
33 32 31 30 30 30 30 29 29 29 29 29 29 29 29 29 29 29 28 28 28 28 26 26 25 26 27 28 29 30 31 32 32 32 33 35 36 36 37 36 36 37 38 39
31 30 30 30 29 29 28 28 28 29 29 29 29 29 29 29 28 28 28 28 27 27 26 26 25 25 26 27 27 28 29 30 30 30 30 32 33 34 34 35 35 36 36 37
30 29 29 29 29 28 29 29 28 28 28 28 28 28 28 28 27 27 27 27 26 26 26 25 24 25 24 24 25 27 28 29 30 31 31 31 32 33 34 34 34 34 34 35
29 29 29 28 28 28 29 29 29 28 27 27 27 26 26 26 25 25 26 26 25 25 26 26 26 26 25 25 25 25 26 27 28 30 32 32 32 33 34 34 34 34 34 34
28 28 28 28 28 28 28 29 28 28 27 26 26 26 26 25 25 25 25 25 25 24 24 24 25 26 26 25 24 25 25 25 27 28 30 31 32 33 34 34 34 33 33 33
26 27 27 27 27 27 28 27 27 26 26 26 26 26 26 26 25 25 24 24 24 25 24 24 25 25 26 26 25 24 24 25 26 27 28 30 31 32 33 34 33 33 33 33
27 27 27 27 27 27 27 27 26 26 26 25 25 25 25 26 26 26 25 24 24 24 24 24 24 25 25 26 26 26 26 25 26 26 27 28 30 31 32 32 33 33 34 34
26 26 26 26 26 26 26 26 26 26 25 25 25 25 26 26 25 25 25 24 24 23 24 24 24 24 25 26 27 27 27 27 27 27 28 29 29 30 30 31 33 33 33 34
25 25 25 25 25 25 25 25 25 25 25 25 24 24 25 25 25 24 24 24 23 23 24 25 25 26 25 25 26 27 27 27 27 27 28 29 29 29 30 31 32 33 33 33
24 24 24 24 24 25 24 24 24 24 24 24 24 24 24 24 24 24 24 24 23 24 24 25 26 26 26 26 27 27 28 28 28 28 29 29 29 30 30 31 31 32 33 34
24 25 25 25 24 24 24 23 23 23 23 23 23 23 23 23 23 24 24 24 24 23 23 24 25 25 25 26 26 27 27 27 28 29 29 29 29 30 30 30 31 31 32 33
25 25 25 25 24 24 24 23 23 22 22 22 22 22 22 22 22 22 23 23 23 23 23 23 24 24 24 25 25 25 26 26 27 28 28 29 29 30 30 31 31 31 32 32
26 26 26 26 25 24 23 23 23 22 21 21 21 21 21 21 21 21 21 22 22 23 23 23 23 23 24 24 25 25 25 25 26 27 27 28 29 29 30 31 31 31 32 32
26 26 26 25 25 24 24 23 22 22 21 21 21 21 20 20 20 20 20 20 20 20 21 21 22 22 23 24 24 25 25 25 26 26 27 27 28 29 30 30 31 31 32 32
26 26 26 25 25 24 23 22 22 21 21 20 20 20 19 19 19 19 19 19 18 18 19 19 20 21 21 22 23 24 25 25 26 26 27 28 28 29 30 31 31 31 32 32
26 25 25 25 24 23 22 22 22 21 21 20 20 19 19 19 18 18 18 17 17 17 18 19 19 20 21 22 23 24 24 25 25 26 27 27 28 29 29 30 30 31 31 32
26 25 25 24 23 22 22 21 21 21 20 19 19 19 19 19 18 17 17 17 17 17 17 18 18 19 20 21 21 22 23 24 24 25 26 27 27 28 29 30 30 31 31 31
26 25 24 23 23 22 21 21 20 19 19 19 19 19 18 18 17 17 17 17 17 17 17 17 17 18 18 19 20 21 22 23 24 25 25 26 27 28 28 28 29 30 30 30
24 23 23 22 22 21 21 20 19 19 19 19 19 19 19 18 17 17 17 17 17 17 17 18 18 18 18 19 19 20 21 22 23 24 25 25 26 26 27 27 28 28 28 29

GEFSNGP_500_meanwind_294.txt.gz
Wind_Speed
33 33 33 33 32 33 33 32 32 31 31 31 32 32 32 33 33 33 34 33 33 34 34 35 35 35 35 37 37 38 40 42 43 44 44 44 44 45 46 46 46 47 48 48
34 33 34 33 32 33 33 33 33 32 31 31 32 31 32 33 34 35 34 34 34 34 34 35 35 35 35 37 37 38 40 43 43 43 44 44 44 45 45 45 46 47 48 49
34 33 33 33 32 32 32 32 32 33 33 33 33 32 32 32 33 34 34 34 34 33 33 34 34 35 35 36 37 38 40 42 42 43 43 43 43 43 44 44 45 47 48 48
33 32 32 32 31 32 32 32 32 32 33 33 33 33 32 32 32 33 33 34 33 32 33 34 34 34 35 35 36 37 39 40 41 42 42 42 42 42 42 43 44 45 46 46
32 32 31 30 31 31 32 31 31 31 32 32 32 33 33 32 32 32 31 32 32 32 32 33 33 33 34 35 35 36 37 39 40 41 41 40 40 40 41 42 42 42 43 43
32 32 31 30 30 31 32 32 31 31 31 32 32 32 32 32 31 30 29 30 30 31 31 31 31 33 33 34 34 35 35 36 37 38 39 39 39 39 40 40 40 40 41 41
31 32 32 31 30 31 31 31 31 31 31 31 32 32 31 31 30 29 29 28 28 28 29 29 30 30 31 31 32 32 32 33 35 36 37 37 37 38 39 39 39 39 40 41
31 31 31 30 30 30 31 31 31 31 31 31 31 31 30 29 28 28 28 28 27 27 27 27 28 29 29 29 29 30 30 31 33 34 35 36 36 37 37 38 38 38 39 40
30 30 30 29 29 30 30 30 31 30 31 31 31 30 30 29 28 28 29 28 27 26 26 25 25 26 27 27 27 28 28 29 31 33 33 34 35 35 36 37 37 37 38 39
29 29 29 28 28 28 28 28 29 29 30 30 30 30 30 30 29 29 29 28 27 26 25 25 24 24 24 24 25 26 27 28 30 31 31 32 33 34 35 35 35 35 36 38
29 28 28 28 27 27 26 27 27 28 28 29 30 29 30 30 29 29 29 28 27 26 25 24 24 24 24 24 25 25 25 26 27 29 30 31 32 32 33 34 34 34 35 37
28 28 27 26 26 25 25 25 25 25 27 28 28 28 28 28 28 28 28 27 27 26 25 24 24 24 23 23 24 24 25 26 27 27 28 30 31 32 32 34 34 33 34 35
27 26 25 25 24 24 24 25 25 26 26 26 25 26 26 26 26 26 26 26 26 26 25 25 24 24 24 22 22 23 24 25 26 27 27 28 28 30 31 32 33 32 33 34
26 25 24 24 24 25 25 25 26 26 26 25 24 24 25 25 25 25 25 25 25 24 24 24 24 24 23 23 22 22 23 24 24 25 25 26 26 28 29 29 30 32 32 33
25 25 25 25 25 25 25 25 26 26 25 25 24 24 24 24 24 23 23 24 24 24 24 24 24 23 23 22 22 22 22 22 23 23 23 24 25 26 28 29 29 30 31 31
24 24 24 25 25 25 25 25 25 25 24 24 23 23 23 23 23 23 22 23 23 23 23 24 24 24 23 22 22 22 23 22 22 23 23 24 24 26 27 28 29 30 31 31
23 23 23 24 24 24 24 24 24 24 24 23 23 23 22 22 22 22 23 23 23 23 23 23 23 23 23 23 23 23 23 23 23 23 24 25 25 25 26 27 27 28 29 30
23 23 23 23 23 23 23 24 24 24 24 23 23 22 22 22 22 22 23 23 23 23 24 23 23 23 23 24 24 24 24 24 25 25 25 25 26 26 26 27 27 28 28 29
24 24 24 24 23 24 24 23 23 23 23 23 23 23 22 22 23 22 22 22 22 23 23 23 23 23 23 23 24 24 25 25 25 25 26 26 27 28 28 28 28 28 28 28
24 24 24 24 24 24 24 24 23 23 23 24 24 23 23 23 23 22 22 23 23 23 23 23 23 23 23 24 24 24 25 25 25 25 26 26 26 28 28 29 29 29 29 29
25 25 25 25 24 24 24 24 24 24 23 24 24 24 24 23 23 22 22 23 23 23 23 22 23 23 23 24 24 25 26 26 26 26 26 26 26 27 27 29 29 30 30 30
24 24 24 24 24 24 24 24 24 24 23 23 23 23 22 22 22 22 22 22 22 22 22 22 22 21 22 23 23 24 25 26 26 26 26 26 27 27 27 28 29 30 30 31
23 23 24 24 24 24 24 24 24 23 22 22 22 21 21 21 21 20 20 20 20 20 20 20 20 20 20 21 22 23 23 24 25 25 26 26 27 27 27 27 28 29 30 30
23 23 23 23 23 23 23 22 22 21 21 20 20 20 19 19 19 18 18 18 18 18 18 18 18 19 20 20 21 22 23 23 24 25 25 25 26 26 27 27 27 27 28 29
23 24 24 23 23 22 21 21 20 19 19 18 18 18 18 18 18 17 17 17 17 17 17 17 18 18 19 20 20 21 22 23 23 23 24 24 25 25 26 26 27 27 27 28
24 24 24 23 22 21 21 20 19 19 18 18 18 17 17 17 17 17 17 17 17 17 17 17 17 18 19 19 20 20 21 22 22 23 24 24 24 25 26 26 26 26 26 27
24 24 23 22 21 20 20 20 19 19 18 18 18 18 17 17 17 17 17 17 17 18 18 17 17 17 18 18 19 20 20 21 22 22 23 23 24 24 24 24 24 25 25 25